2020-061Z (46295 NORAD) Tracking and Keplerian Element Data

This shows tracking and keplerian element data for the satellite.

Feedback or suggestion? Click here.




ElementValue
Catalog46295
Name2020-061Z
Epoch Orbit297
Epoch Day267.4846228
Epoch Year2020
RAAN340.2469
Inclination97.5177
Eccentricity0.0002329
Argument of Perigee222.0442
Mean Anonmoly138.0609
Mean Motion15.10295311
Decay Rate1.165E-05
L11 46295U 20061Z 20267.48462280 .00001165 00000-0 74985-4 0 9996
L22 46295 97.5177 340.2469 0002329 222.0442 138.0609 15.10295311 2977

Live tracking and technical data element details for 2020-061Z (NORAD 46295). 2020-061Z can be tracked NOW for your location showing map with azimuth and elevation plus other details from your city location.

Track the satellite on the map from your city or location and see movement details for azimuth, elevation, latitude, longitude, range, height, and movement on the map or in text.







IsCatalogInMostPopularTable: catalog: 46295, numindb: 2
Update: records affected: 1



GetName: 46295 2020-061Z

Hit Count: updated at: Thu, 24 Sep 2020 17:38:18 GMT